Weather History for Golden Triangle, MS

Change the Weather History Date:

Tuesday, August 27, 2013

  Actual Average Record
Temperature  
Mean Temperature 73 °F -  
Max Temperature 86 °F 88 °F 98 °F (2007)
Min Temperature 60 °F 67 °F 60 °F (2013)
Cooling Degree Days 8    
Growing Degree Days 23 (Base 50)    
Moisture  
Dew Point 63 °F    
Average Humidity 81    
Maximum Humidity 100    
Minimum Humidity 43    
Precipitation  
Precipitation 0.00 in - - ()
Sea Level Pressure  
Sea Level Pressure 30.12 in    
Wind  
Wind Speed 1 mph (NE)    
Max Wind Speed 9 mph    
Max Gust Speed -    
Visibility 7 miles    
Events Fog    
Averages and records for this station are not official NWS values.
T = Trace of Precipitation, MM = Missing Value Source: NWS Daily Summary

Daily Weather History Graph

Daily Weather History Graph

Search for Another Location

Airport:

Trip Planner

Search our weather history database for the weather conditions in past years. The results will help you decide how hot, cold, wet, or windy it might be!

Date:

Astronomy

Aug. 27, 2013 Rise Set
Actual Time 6:25 AM CDT 7:25 PM CDT
Civil Twilight 5:59 AM CDT 7:51 PM CDT
Nautical Twilight 5:29 AM CDT 8:21 PM CDT
Astronomical Twilight 4:58 AM CDT 8:52 PM CDT
Moon 11:41 PM CDT (8/27) 1:01 PM CDT (8/27)
Length of Visible Light 13h 51m
Length of Day
13h 00m
Waning Gibbous, 57% of the Moon is Illuminated
Aug 27
Waning Gibbous
Aug 28
Last Quarter
Sep 5
New
Sep 12
First Quarter
Sep 19
Full

Hourly Weather History & Observations

Time (CDT) Temp. Heat Index Dew Point Humidity Pressure Visibility Wind Dir Wind Speed Gust Speed Precip Events Conditions
12:15 AM 66.2 °F - 62.6 °F 88% 30.16 in 10.0 mi Calm Calm - N/A   Clear
12:35 AM 66.2 °F - 62.6 °F 88% 30.16 in 10.0 mi ENE 3.5 mph - N/A   Clear
12:55 AM 64.4 °F - 62.6 °F 94% 30.16 in 10.0 mi Calm Calm - N/A   Clear
1:15 AM 64.4 °F - 60.8 °F 88% 30.15 in 10.0 mi Calm Calm - N/A   Clear
1:35 AM 62.6 °F - 60.8 °F 94% 30.14 in 10.0 mi Calm Calm - N/A   Clear
1:55 AM 62.6 °F - 60.8 °F 94% 30.14 in 10.0 mi Calm Calm - N/A   Clear
2:15 AM 62.6 °F - 62.6 °F 100% 30.14 in 5.0 mi Calm Calm - N/A   Clear
2:35 AM 64.4 °F - 62.6 °F 94% 30.14 in 5.0 mi Calm Calm - N/A   Clear
2:55 AM 64.4 °F - 62.6 °F 94% 30.14 in 3.0 mi WNW 3.5 mph - N/A   Clear
3:15 AM 64.4 °F - 62.6 °F 94% 30.13 in 5.0 mi NNE 4.6 mph - N/A   Clear
3:35 AM 64.4 °F - 62.6 °F 94% 30.14 in 9.0 mi NNE 3.5 mph - N/A   Clear
3:56 AM 64.4 °F - 62.6 °F 94% 30.13 in 10.0 mi Calm Calm - N/A   Clear
4:15 AM 64.4 °F - 62.6 °F 94% 30.13 in 4.0 mi Calm Calm - N/A   Clear
4:35 AM 62.6 °F - 62.6 °F 100% 30.13 in 0.2 mi Calm Calm - N/A   Unknown
4:55 AM 60.8 °F - 60.8 °F 100% 30.14 in 1.2 mi Calm Calm - N/A   Clear
5:15 AM 62.6 °F - 60.8 °F 94% 30.14 in 2.0 mi Calm Calm - N/A   Clear
5:35 AM 62.6 °F - 60.8 °F 94% 30.14 in 0.8 mi Calm Calm - N/A   Unknown
5:55 AM 60.8 °F - 60.8 °F 100% 30.14 in 0.2 mi Calm Calm - N/A   Unknown
6:15 AM 60.8 °F - 59.0 °F 94% 30.14 in 0.5 mi Calm Calm - N/A   Unknown
6:25 AM 60.8 °F - 57.2 °F 88% 30.15 in 0.5 mi Calm Calm - N/A Fog Fog
6:35 AM 60.8 °F - 57.2 °F 88% 30.15 in 0.2 mi Calm Calm - N/A   Unknown
6:50 AM 60.8 °F - 60.8 °F 100% 30.15 in 0.8 mi Calm Calm - N/A   Mist
7:50 AM 66.2 °F - 64.4 °F 94% 30.17 in 4.0 mi Calm Calm - N/A   Clear
8:45 AM 71.6 °F - 66.2 °F 83% 30.17 in 7.0 mi Calm Calm - N/A   Scattered Clouds
9:45 AM 77.0 °F - 68.0 °F 74% 30.16 in 10.0 mi Calm Calm - N/A   Partly Cloudy
10:45 AM 80.6 °F 81.8 °F 62.6 °F 54% 30.17 in 10.0 mi Calm Calm - N/A   Partly Cloudy
11:45 AM 82.4 °F 83.4 °F 62.6 °F 51% 30.16 in 10.0 mi Calm Calm - N/A   Mostly Cloudy
12:45 PM 84.2 °F 84.4 °F 60.8 °F 45% 30.14 in 10.0 mi ENE 8.1 mph - N/A   Mostly Cloudy
1:50 PM 84.2 °F 84.4 °F 60.8 °F 45% 30.11 in 10.0 mi NNE 6.9 mph - N/A   Scattered Clouds
2:50 PM 84.2 °F 84.4 °F 60.8 °F 45% 30.09 in 10.0 mi ENE 9.2 mph - N/A   Scattered Clouds
3:55 PM 84.2 °F 84.4 °F 60.8 °F 45% 30.08 in 10.0 mi ENE 4.6 mph - N/A   Scattered Clouds
4:45 PM 86.0 °F 86.1 °F 60.8 °F 43% 30.07 in 10.0 mi NE 4.6 mph - N/A   Scattered Clouds
5:45 PM 82.4 °F 82.9 °F 60.8 °F 48% 30.08 in 10.0 mi Calm Calm - N/A   Partly Cloudy
6:50 PM 82.4 °F 83.9 °F 64.4 °F 54% 30.06 in 10.0 mi SSW 4.6 mph - N/A   Partly Cloudy
8:15 PM 73.4 °F - 64.4 °F 73% 30.07 in 10.0 mi Calm Calm - N/A   Clear
8:35 PM 71.6 °F - 64.4 °F 78% 30.07 in 10.0 mi Calm Calm - N/A   Clear
8:55 PM 73.4 °F - 66.2 °F 78% 30.08 in 10.0 mi Calm Calm - N/A   Clear
9:15 PM 71.6 °F - 64.4 °F 78% 30.08 in 9.0 mi Calm Calm - N/A   Clear
9:35 PM 71.6 °F - 64.4 °F 78% 30.09 in 7.0 mi Calm Calm - N/A   Clear
9:55 PM 71.6 °F - 64.4 °F 78% 30.09 in 10.0 mi Calm Calm - N/A   Clear
10:15 PM 69.8 °F - 64.4 °F 83% 30.09 in 7.0 mi Calm Calm - N/A   Clear
10:35 PM 69.8 °F - 64.4 °F 83% 30.09 in 10.0 mi Calm Calm - N/A   Clear
10:55 PM 69.8 °F - 64.4 °F 83% 30.09 in 10.0 mi Calm Calm - N/A   Clear
11:15 PM 68.0 °F - 64.4 °F 88% 30.09 in 10.0 mi Calm Calm - N/A   Clear
11:35 PM 66.2 °F - 64.4 °F 94% 30.08 in 10.0 mi Calm Calm - N/A   Clear
11:55 PM 68.0 °F - 64.4 °F 88% 30.08 in 10.0 mi Calm Calm - N/A   Clear